Malmstrom AFB, MT

8:18 AM MDT on June 25, 2018 (GMT -0600)
Malmstrom AFB

Weather History for KGFA - December, 2017

Change the Weather History Date:

Thursday, December 7, 2017

  Actual Average (KGTF) Record (KGTF)
Temperature  
Mean Temperature 38 °F -  
Max Temperature 45 °F 33 °F 60 °F (1900)
Min Temperature 30 °F 15 °F -33 °F (2013)
Degree Days  
Heating Degree Days 28    
Moisture  
Dew Point 19 °F    
Average Humidity 49    
Maximum Humidity 61    
Minimum Humidity 35    
Precipitation  
Precipitation 0.00 in - - ()
Sea Level Pressure  
Sea Level Pressure 30.53 in    
Wind  
Wind Speed 19 mph (SW)    
Max Wind Speed 24 mph    
Max Gust Speed 29 mph    
Visibility 10 miles    
Events      
Averages and records for this station are not official NWS values.
T = Trace of Precipitation, MM = Missing Value Source: NWS Daily Summary

Daily Weather History Graph

Daily Weather History Graph

Search for Another Location

Airport or City:

Astronomy

Dec. 07, 2017 Rise Set
Actual Time 7:58 AM MST 4:33 PM MST
Civil Twilight 7:23 AM MST 5:09 PM MST
Nautical Twilight 6:44 AM MST 5:48 PM MST
Astronomical Twilight 6:07 AM MST 6:25 PM MST
Moon 9:33 PM MST (12/7) 11:33 AM MST (12/7)
Length of Visible Light 9h 46m
Length of Day
8h 34m
Waning Gibbous, 77% of the Moon is Illuminated
Dec 7
Waning Gibbous
Dec 10
Last Quarter
Dec 17
New
Dec 26
First Quarter
Jan 1
Full

Hourly Weather History & Observations

Time (MST) Temp. Windchill Dew Point Humidity Pressure Visibility Wind Dir Wind Speed Gust Speed Precip Events Conditions
12:58 AM 32.7 °F 21.4 °F 18.3 °F 55% 30.56 in 10.0 mi SW 18.4 mph - N/A   Mostly Cloudy
1:58 AM 34.9 °F 26.6 °F 18.0 °F 50% 30.56 in 10.0 mi WSW 11.5 mph - N/A   Overcast
2:58 AM 31.5 °F 19.4 °F 18.7 °F 59% 30.58 in 10.0 mi SW 19.6 mph 25.3 mph N/A   Partly Cloudy
3:58 AM 32.7 °F 20.4 °F 18.0 °F 55% 30.56 in 10.0 mi WSW 21.9 mph 28.8 mph N/A   Clear
4:58 AM 31.8 °F 19.3 °F 17.8 °F 56% 30.58 in 10.0 mi SW 21.9 mph 26.5 mph N/A   Clear
5:58 AM 30.2 °F 17.8 °F 18.1 °F 61% 30.58 in 10.0 mi SW 19.6 mph - N/A   Clear
6:58 AM 31.8 °F 20.6 °F 17.6 °F 56% 30.58 in 10.0 mi WSW 17.3 mph 24.2 mph N/A   Clear
7:58 AM 31.6 °F 18.7 °F 18.0 °F 57% 30.57 in 10.0 mi SW 23.0 mph - N/A   Clear
8:58 AM 33.4 °F 20.8 °F 18.0 °F 53% 30.56 in 10.0 mi SW 24.2 mph 26.5 mph N/A   Clear
11:17 AM 40.8 °F 31.4 °F 19.0 °F 42% 30.61 in 10.0 mi SW 20.7 mph 28.8 mph N/A   Clear
11:55 AM 42.6 °F 34.3 °F 19.2 °F 39% 30.59 in 10.0 mi WSW 18.4 mph 27.6 mph N/A   Clear
12:55 PM 45.5 °F 38.9 °F 21.4 °F 38% 30.57 in 10.0 mi SW 15.0 mph 21.9 mph N/A   Clear
1:58 PM 45.9 °F 37.8 °F 19.8 °F 35% 30.49 in 10.0 mi SW 21.9 mph 26.5 mph N/A   Clear
2:58 PM 45.3 °F 38.1 °F 21.0 °F 38% 30.51 in 10.0 mi SW 17.3 mph - N/A   Clear
3:58 PM 42.3 °F 34.1 °F 19.9 °F 41% 30.51 in 10.0 mi SW 17.3 mph - N/A   Clear
4:58 PM 39.6 °F 31.3 °F 21.2 °F 48% 30.53 in 10.0 mi SW 15.0 mph - N/A   Clear
5:58 PM 39.2 °F 29.6 °F 21.4 °F 49% 30.52 in 10.0 mi WSW 19.6 mph - N/A   Clear
6:58 PM 38.8 °F 28.8 °F 20.5 °F 48% 30.52 in 10.0 mi WSW 20.7 mph - N/A   Clear
7:58 PM 34.0 °F 23.8 °F 19.9 °F 56% 30.53 in 10.0 mi SW 16.1 mph - N/A   Clear
8:58 PM 36.7 °F 25.1 °F 18.5 °F 48% 30.51 in 10.0 mi SW 24.2 mph - N/A   Clear
9:58 PM 37.4 °F 26.1 °F 18.5 °F 46% 30.41 in 10.0 mi SW 24.2 mph - N/A   Clear
10:58 PM 35.6 °F 25.2 °F 18.1 °F 49% 30.42 in 10.0 mi SW 18.4 mph 27.6 mph N/A   Clear
11:58 PM 33.8 °F 23.5 °F 17.8 °F 52% 30.42 in 10.0 mi WSW 16.1 mph 25.3 mph N/A   Clear